634  
NZUS99 KSGF 211407  
HRRSGF  
 
HOURLY WEATHER  
NATIONAL WEATHER SERVICE SPRINGFIELD MO  
900 AM CDT THU JUN 21 2018  
   
.....SGF CWA...
 
 
 
CITY SKY/WX TMP DP RH WIND PRES REMARKS  
SPRINGFIELD MOSUNNY 69 61 75 NW12G22 29.86R  
JOPLIN SUNNY 70 59 68 NW13 29.90S  
WEST PLAINS PTSUNNY 74 68 81 VRB6 29.85F  
ROLLA CLOUDY 72 69 90 SW10 29.81S  
OSAGE BEACH CLOUDY 71 66 84 W7 29.82S  
BRANSON PTSUNNY 72 70 94 W7 29.87F  
   
.....SURROUNDING SGF CWA...
 
 
 
CITY SKY/WX TMP DP RH WIND PRES REMARKS  
CHANUTE SUNNY 71 59 65 NW13 29.91R  
PARSONS SUNNY 71 59 65 NW12 29.92S  
COFFEYVILLE SUNNY 72 58 61 NW14 29.91S  
EMPORIA SUNNY 70 56 61 W17G26 29.89F  
GROVE OK SUNNY 70 63 78 NW10 29.92R  
ROGERS AR CLOUDY 72 66 81 W15 29.91R  
SILOAM SPRINGS CLOUDY 70 66 87 NW12 29.92R  
HARRISON AR MOSUNNY 76 69 79 W12 29.87F  
NEAR YELLVILLE MOSUNNY 75 70 84 SW7 29.86F  
   
.....KANSAS AND MISSOURI...
 
 
 
CITY SKY/WX TMP DP RH WIND PRES REMARKS  
KANSAS CTY INT CLOUDY 65 58 78 W9 29.80S  
DOWNTOWN KC MOSUNNY 68 57 68 W9G20 29.79F  
COLUMBIA PTSUNNY 71 62 73 W12 29.79S  
SEDALIA PTSUNNY 69 61 75 NW10 29.81S  
ST JOSEPH LGT RAIN 63 61 93 SW8 29.77F  
ST LOUIS PTSUNNY 76 69 79 SW9 29.77S  
SPIRIT OF STL CLOUDY 76 69 79 W12 29.76S  
KIRKSVILLE CLOUDY 67 61 81 W8 29.76S  
WICHITA MOSUNNY 74 58 57 NW17 29.95S  
TOPEKA MOSUNNY 67 60 78 W15G28 29.82F  
OLATHE SUNNY 68 58 70 W8G23 29.82F  
   
.....TENNESSEE...
 
 
 
CITY SKY/WX TMP DP RH WIND PRES REMARKS  
MEMPHIS LGT RAIN 75 73 93 W10 29.86S  
NASHVILLE PTSUNNY 76 69 79 S9 29.88S  
   
.....ARKANSAS....
 
 
 
CITY SKY/WX TMP DP RH WIND PRES REMARKS  
FAYETTEVILLE PTSUNNY 74 68 81 W13 29.90S  
FT SMITH CLOUDY 72 71 97 SW9 29.91R  
LITTLE ROCK PTSUNNY 77 73 87 SW8 29.88S  
   
.....OKLAHOMA....
 
 
 
CITY SKY/WX TMP DP RH WIND PRES REMARKS  
TULSA CLOUDY 73 61 65 NW15 29.93R  
PONCA CITY SUNNY 73 56 54 VRB7 29.96S  
MCALESTER MOSUNNY 76 71 85 NW6 29.95R  
OKLAHOMA CITY CLOUDY 74 59 59 N13 30.00R  
   
.....IOWA.........
 
 
 
CITY SKY/WX TMP DP RH WIND PRES REMARKS  
DES MOINES CLOUDY 64 60 87 SW5 29.70S  
QUAD CITIES CLOUDY 72 68 87 E8 29.73F  
   
.....ILLINOIS.....
 
 
 
CITY SKY/WX TMP DP RH WIND PRES REMARKS  
QUINCY CLOUDY 72 68 87 SW8 29.74S  
CHICAGO HVY RAIN 66 64 93 NE13 29.79S FOG  
 
 
 
CLICK HERE TO GO TO PREVIOUS BULLETINS.

The Nexlab MO Page
The Nexlab KS Page Main Text Page